This demonstration page uses our WeatherBlox Daily Observations layout. Learn more.

Left ArrowRight Arrow

Hourly Observations for May 30, 2020

Temp ( °F °C ) Dew Point ( °F °C ) Humidity (%) Winds ( mph kmh ) Pressure ( in mb ) Visibility ( mi km ) Precip ( " mm )
12:15 am 00:15 Clear 61 16.3 51 10.6 69 69 ESE 6 9 30.15 1021 10 16.0934 0 0
12:35 am 00:35 Clear 60 15.8 51 10.7 72 72 SE 7 11 30.14 1021 10 16.0934 0 0
12:55 am 00:55 Clear 60 15.3 52 10.9 75 75 SE 7 11 30.15 1021 10 16.0934 0 0
1:15 am 01:15 Clear 59 15.2 52 10.9 76 76 SE 6 9 30.15 1021 10 16.0934 0 0
1:35 am 01:35 Clear 60 15.3 52 10.9 75 75 ESE 6 9 30.14 1021 10 16.0934 0 0
1:55 am 01:55 Clear 59 15.2 51 10.7 75 75 ESE 7 11 30.14 1021 10 16.0934 0 0
2:15 am 02:15 Clear 59 15 51 10.8 76 76 ESE 7 11 30.13 1020 10 16.0934 0 0
2:35 am 02:35 Clear 59 15 51 10.7 76 76 SE 6 9 30.13 1020 10 16.0934 0 0
2:55 am 02:55 Clear 58 14.7 51 10.6 77 77 ESE 6 9 30.13 1020 10 16.0934 0 0
3:15 am 03:15 Clear 58 14.6 51 10.5 77 77 ESE 6 9 30.14 1021 10 16.0934 0 0
3:35 am 03:35 Clear 57 14.1 51 10.7 80 80 E 6 9 30.15 1021 10 16.0934 0 0
3:55 am 03:55 Clear 57 14 51 10.6 80 80 ESE 7 11 30.15 1021 10 16.0934 0 0
4:15 am 04:15 Clear 57 13.8 51 10.6 81 81 ESE 6 9 30.14 1021 10 16.0934 0 0
4:35 am 04:35 Clear 57 13.8 51 10.6 81 81 ESE 8 13 30.13 1020 10 16.0934 0 0
4:55 am 04:55 Partly Cloudy 58 14.2 51 10.6 79 79 ESE 6 9 30.13 1020 10 16.0934 0 0
5:15 am 05:15 Partly Cloudy 58 14.3 51 10.7 79 79 NNW 3 6 30.16 1021 10 16.0934 0 0
5:35 am 05:35 Clear 58 14.5 51 10.7 78 78 Calm 30.15 1021 10 16.0934 0 0
5:55 am 05:55 Clear 58 14.3 51 10.8 80 80 E 3 6 30.14 1020 10 16.0934 0 0
6:15 am 06:15 Sunny 57 14.1 52 11.2 83 83 ESE 7 11 30.13 1020 10 16.0934 0 0
6:35 am 06:35 Sunny 58 14.3 52 11.2 82 82 ESE 8 13 30.13 1020 10 16.0934 0 0
6:55 am 06:55 Sunny 59 15.2 52 11 76 76 SE 15 24 30.1 1019 10 16.0934 0 0
7:15 am 07:15 Partly Cloudy 60 15.4 51 10.8 74 74 SE 14 22 30.1 1019 10 16.0934 0 0
7:35 am 07:35 Mostly Cloudy 61 16.1 52 11.1 72 72 SE 20 31 30.06 1018 10 16.0934 0 0
7:55 am 07:55 Partly Cloudy 63 17.1 52 11 68 68 SE 18 30 30.04 1017 10 16.0934 0 0
8:15 am 08:15 Mostly Cloudy 64 17.5 52 11.1 66 66 SE 7 11 30.1 1019 10 16.0934 0 0
8:35 am 08:35 Cloudy with Light Rain 64 17.6 53 11.6 68 68 ESE 16 26 30.08 1019 10 16.0934 0 0
8:55 am 08:55 Cloudy with Light Rain 63 17.1 54 12.3 74 74 E 12 19 30.11 1020 10 16.0934 0 0
9:15 am 09:15 Cloudy with Light Rain 62 16.6 54 12.3 76 76 E 10 17 30.15 1021 10 16.0934 0 0
9:35 am 09:35 Mostly Cloudy 62 16.8 54 12.3 75 75 E 14 22 30.13 1020 10 16.0934 0 0
9:55 am 09:55 Mostly Cloudy 62 16.6 55 12.5 77 77 E 14 22 30.14 1020 10 16.0934 0 0
10:15 am 10:15 Sunny 63 17 55 12.5 75 75 E 16 26 30.12 1020 10 16.0934 0 0
10:35 am 10:35 Partly Cloudy 63 17.2 54 12.4 74 74 E 17 28 30.11 1020 10 16.0934 0 0
10:55 am 10:55 Sunny 67 19.5 55 13 66 66 E 24 39 30.09 1019 10 16.0934 0 0
11:15 am 11:15 Partly Cloudy 67 19.2 54 12.2 64 64 E 21 33 30.08 1019 10 16.0934 0 0
11:35 am 11:35 Partly Cloudy 68 20.1 54 12.2 61 61 E 22 35 30.1 1019 10 16.0934 0 0
11:55 am 11:55 Sunny 69 20.6 55 12.9 61 61 E 22 35 30.08 1019 10 16.0934 0 0
12:15 pm 12:15 Sunny 70 21.1 55 12.7 59 59 ESE 22 35 30.09 1019 10 16.0934 0 0
12:35 pm 12:35 Sunny 72 22 55 12.5 55 55 ESE 23 37 30.06 1018 10 16.0934 0 0
12:55 pm 12:55 Sunny 72 22.2 55 12.8 55 55 ESE 22 35 30.06 1018 10 16.0934 0 0
1:15 pm 13:15 Sunny 73 22.5 55 12.8 54 54 ESE 22 35 30.06 1018 10 16.0934 0 0
1:35 pm 13:35 Sunny 74 23.2 56 13.1 53 53 ESE 21 33 30.05 1018 10 16.0934 0 0
1:55 pm 13:55 Sunny 74 23.6 56 13.3 53 53 ESE 20 31 30.05 1018 10 16.0934 0 0
2:15 pm 14:15 Sunny 75 24 56 13.3 51 51 ESE 21 33 30.03 1017 10 16.0934 0 0
2:35 pm 14:35 Partly Cloudy 75 24 56 13.2 51 51 ESE 21 33 30.03 1017 10 16.0934 0 0
2:55 pm 14:55 Mostly Cloudy 76 24.6 56 13.5 50 50 ESE 20 31 30.03 1017 10 16.0934 0 0
3:15 pm 15:15 Partly Cloudy 77 25.1 57 13.7 49 49 ESE 20 31 30.02 1016 10 16.0934 0 0
3:35 pm 15:35 Partly Cloudy 77 24.9 56 13.6 50 50 E 21 33 30.02 1016 10 16.0934 0 0
3:55 pm 15:55 Partly Cloudy 78 25.4 57 13.8 49 49 E 23 37 30 1016 10 16.0934 0 0
4:15 pm 16:15 Partly Cloudy 78 25.7 57 13.8 48 48 E 23 37 30 1016 10 16.0934 0 0
4:35 pm 16:35 Mostly Cloudy 79 25.9 57 14 48 48 E 22 35 30 1016 10 16.0934 0 0
4:55 pm 16:55 Mostly Cloudy 77 25.1 56 13.4 48 48 E 28 44 30.01 1016 10 16.0934 0 0
5:15 pm 17:15 Partly Cloudy 76 24.7 56 13.2 49 49 E 23 37 30.01 1016 10 16.0934 0 0
5:35 pm 17:35 Sunny 76 24.5 56 13.2 49 49 E 24 39 30 1016 10 16.0934 0 0
5:55 pm 17:55 Sunny 76 24.3 55 12.9 49 49 E 22 35 30 1016 10 16.0934 0 0
6:15 pm 18:15 Sunny 74 23.2 55 12.6 51 51 E 24 39 30 1016 10 16.0934 0 0
6:35 pm 18:35 Sunny 73 23 55 12.6 52 52 E 23 37 29.99 1016 10 16.0934 0 0
6:55 pm 18:55 Sunny 74 23.3 55 12.5 51 51 E 25 41 29.99 1016 10 16.0934 0 0
7:15 pm 19:15 Sunny 73 23 54 12.3 51 51 E 28 44 30 1016 10 16.0934 0 0
7:35 pm 19:35 Sunny 73 22.6 55 12.5 53 53 E 25 41 30.01 1016 10 16.0934 0 0
7:55 pm 19:55 Sunny 72 22.1 54 12.2 54 54 E 26 43 30.01 1016 10 16.0934 0 0
8:15 pm 20:15 Sunny 71 21.6 54 12.2 55 55 E 25 41 30.02 1017 10 16.0934 0 0
8:35 pm 20:35 Sunny 70 21 54 12.1 57 57 E 22 35 30.03 1017 10 16.0934 0 0
8:55 pm 20:55 Sunny 69 20.5 54 12.2 59 59 E 20 31 30.04 1017 10 16.0934 0 0
9:15 pm 21:15 Clear 68 20 54 12 60 60 E 21 33 30.05 1017 10 16.0934 0 0
9:35 pm 21:35 Clear 65 18.5 54 12 66 66 E 18 30 30.07 1018 10 16.0934 0 0
9:55 pm 21:55 Clear 64 17.8 53 11.7 68 68 E 21 33 30.09 1019 10 16.0934 0 0
10:15 pm 22:15 Clear 64 17.5 53 11.7 69 69 E 18 30 30.09 1019 10 16.0934 0 0
10:35 pm 22:35 Clear 63 17.3 53 11.7 70 70 E 21 33 30.1 1019 10 16.0934 0 0
10:55 pm 22:55 Clear 63 17.1 53 11.7 71 71 E 18 30 30.1 1019 10 16.0934 0 0
11:15 pm 23:15 Clear 62 16.8 53 11.7 72 72 E 17 28 30.1 1019 10 16.0934 0 0
11:35 pm 23:35 Clear 62 16.5 53 11.7 73 73 E 20 31 30.11 1020 10 16.0934 0 0
11:55 pm 23:55 Clear 61 16.2 53 11.8 75 75 E 16 26 30.11 1020 10 16.0934 0 0

Powered by AerisWeather